Weerstation Grootegast  Weerstation Grootegast


15 daagse weersverwachting Pescara (IT)

  • Overzicht
  • Per uur
  • 15 dagen
  • Extra
  • Vergelijk
  • Kaarten
  • Dagkaart
  • Meer »
  • Info
  • Statistieken
  • Directe link
    Temp 6h Neerslag Wind  
 06:50     17:44    Daglengte: 10:54 Vandaag
13:00
10°
 
3
19:00
10°
20.0 mm
3
 06:48     17:45    Daglengte: 10:57 Morgen
01:00
12.7 mm
2
07:00
18.0 mm
3
13:00
10°
19.2 mm
3
19:00
10°
62.1 mm
4
 06:47     17:46    Daglengte: 10:59 Zaterdag 24 Feb
01:00
12°
51.5 mm
6
07:00
11°
85.1 mm
4
13:00
12°
52.6 mm
3
19:00
12°
52.4 mm
3
 06:45     17:48    Daglengte: 11:03 Zondag 25 Feb
01:00
11°
56.1 mm
2
Locatie info
Region: Abruzzo
Latitude: 42.4639°N
Longitude: 14.2135°E
5 masl
Postcode: 65121
Temp/Neerslag /Baro Onweer/Dauwpunt
    Temp Baro 1h Neerslag Dauwpunt Wind UV Bewolking  
 06:50     17:44    Daglengte: 10:54 Vandaag
08:00
Voelt als: 5.7°
1002.0 hPa
20%
3.3°
2
Windvlaag: -3.6 m/s
46%
09:00
Voelt als: 6.4°
1002.4 hPa
20%
3.1°
2
Windvlaag: -1.4 m/s
30%
10:00
Voelt als: 7.0°
1002.7 hPa
20%
3.8°
2
Windvlaag: 1.1 m/s
17%
11:00
Voelt als: 7.2°
1002.8 hPa
20%
4.6°
3
Windvlaag: 1.6 m/s
73%
12:00
Voelt als: 7.8°
1003.0 hPa
21%
5.1°
3
Windvlaag: 0.1 m/s
81%
13:00
10°
Voelt als: 8.2°
1003.0 hPa
20%
5.7°
3
Windvlaag: -1.5 m/s
81%
14:00
10°
Voelt als: 8.3°
1003.2 hPa 0.5 mm
21%
6.1°
3
Windvlaag: -2.4 m/s
81%
15:00
Voelt als: 7.6°
1003.0 hPa 2.3 mm
21%
6.3°
3
Windvlaag: -2.7 m/s
81%
16:00
Voelt als: 7.6°
1002.9 hPa 3.8 mm
21%
6.5°
3
Windvlaag: -2.5 m/s
81%
17:00
10°
Voelt als: 7.9°
1002.7 hPa 4.2 mm
21%
5.4°
4
Windvlaag: -2.6 m/s
77%
18:00
10°
Voelt als: 8.1°
1002.6 hPa 4.5 mm
21%
5.9°
4
Windvlaag: -2.1 m/s
68%
19:00
10°
Voelt als: 8.2°
1002.5 hPa 4.7 mm
21%
5.5°
3
Windvlaag: -2 m/s
74%
20:00
Voelt als: 7.4°
1002.3 hPa 4.2 mm
21%
6.0°
4
Windvlaag: 1.1 m/s
81%
21:00
Voelt als: 6.6°
1002.0 hPa 4.0 mm
21%
6.0°
5
Windvlaag: 0.4 m/s
81%
22:00
Voelt als: 6.9°
1001.7 hPa
21%
6.3°
4
Windvlaag: -1.2 m/s
72%
23:00
Voelt als: 7.3°
1001.6 hPa
21%
6.5°
3
Windvlaag: -1.5 m/s
66%
 06:48     17:45    Daglengte: 10:57 Morgen
00:00
Voelt als: 7.4°
1001.5 hPa 4.5 mm
21%
6.0°
3
Windvlaag: -1 m/s
43%
01:00
Voelt als: 7.4°
1001.4 hPa
21%
5.7°
2
Windvlaag: 0.6 m/s
44%
02:00
Voelt als: 7.2°
1001.3 hPa 9.7 mm
21%
6.3°
3
Windvlaag: 1.1 m/s
59%
03:00
Voelt als: 7.3°
1001.0 hPa
21%
6.2°
2
Windvlaag: 1.9 m/s
26%
04:00
Voelt als: 6.6°
1001.0 hPa 4.2 mm
21%
6.3°
2
Windvlaag: 2.6 m/s
42%
05:00
Voelt als: 6.1°
1001.1 hPa 4.1 mm
21%
5.8°
2
Windvlaag: 2 m/s
32%
06:00
Voelt als: 5.4°
1001.5 hPa
21%
5.3°
3
Windvlaag: 1.4 m/s
19%
07:00
Voelt als: 5.9°
1002.0 hPa
21%
4.9°
3
Windvlaag: 1.3 m/s
68%
08:00
Voelt als: 7.5°
1002.4 hPa
21%
4.5°
2
Windvlaag: 1.1 m/s
59%
09:00
Voelt als: 8.2°
1003.0 hPa
21%
5.0°
2
Windvlaag: 1.1 m/s
81%
10:00
10°
Voelt als: 8.9°
1003.2 hPa 4.0 mm
21%
5.4°
2
Windvlaag: 1.3 m/s
81%
11:00
10°
1003.4 hPa 4.6 mm
21%
6.0°
2
Windvlaag: 0.1 m/s
81%
12:00
10°
1003.5 hPa 5.3 mm
21%
6.1°
2
Windvlaag: -1 m/s
81%
13:00
10°
1003.3 hPa 5.4 mm
21%
5.6°
3
Windvlaag: -2 m/s
81%
14:00
10°
Voelt als: 8.0°
1003.1 hPa 6.9 mm
21%
5.0°
4
Windvlaag: -2.7 m/s
81%
15:00
10°
Voelt als: 7.8°
1002.8 hPa 8.6 mm
21%
5.3°
4
Windvlaag: -2.5 m/s
81%
16:00
10°
Voelt als: 7.2°
1002.5 hPa 11.3 mm
21%
5.4°
5
Windvlaag: -2.9 m/s
76%
17:00
10°
Voelt als: 6.7°
1002.3 hPa 10.7 mm
21%
5.6°
6
Windvlaag: -3 m/s
80%
18:00
Voelt als: 6.4°
1001.9 hPa 11.7 mm
21%
5.3°
6
Windvlaag: -3.2 m/s
79%
19:00
10°
Voelt als: 8.1°
1001.8 hPa 12.8 mm
21%
5.7°
4
Windvlaag: -4.2 m/s
73%
20:00
10°
Voelt als: 7.7°
1002.0 hPa 12.0 mm
21%
6.0°
4
Windvlaag: -3.5 m/s
59%
21:00
10°
Voelt als: 8.7°
1002.3 hPa 9.8 mm
21%
7.1°
3
Windvlaag: -2.8 m/s
74%
22:00
10°
1002.6 hPa 9.9 mm
21%
8.1°
2
Windvlaag: -1.6 m/s
75%
23:00
11°
1002.6 hPa 9.9 mm
21%
9.1°
3
Windvlaag: 0.2 m/s
69%
 06:47     17:46    Daglengte: 10:59 Zaterdag 24 Feb
00:00
11°
1002.4 hPa 9.9 mm
21%
8.9°
5
Windvlaag: 1.2 m/s
76%
01:00
12°
1002.3 hPa
21%
9.0°
6
Windvlaag: 1.7 m/s
49%
02:00
12°
1002.4 hPa 32.9 mm
21%
9.0°
7
Windvlaag: 1.1 m/s
45%
03:00
12°
1002.4 hPa 10.3 mm
21%
8.8°
6
Windvlaag: 0.3 m/s
70%
04:00
10°
1003.2 hPa 10.5 mm
100%
8.1°
4
Windvlaag: -1.5 m/s
88%
05:00
11°
1003.5 hPa 10.2 mm
100%
8.7°
4
Windvlaag: -0.1 m/s
95%
06:00
11°
1003.8 hPa 10.4 mm
100%
9.3°
4
Windvlaag: 0.5 m/s
90%
07:00
11°
1004.2 hPa 10.8 mm
100%
8.9°
4
Windvlaag: 0.5 m/s
84%
08:00
12°
1005.1 hPa 10.1 mm
100%
9.9°
2
Windvlaag: 0.9 m/s
88%
09:00
12°
1005.5 hPa
100%
9.6°
2
Windvlaag: 2 m/s
84%
10:00
12°
1006.0 hPa 10.9 mm
100%
9.1°
2
Windvlaag: 2 m/s
91%
11:00
12°
1006.4 hPa 10.6 mm
100%
9.5°
2
Windvlaag: 1.4 m/s
92%
12:00
12°
1006.6 hPa 10.4 mm
100%
8.5°
3
Windvlaag: 1.6 m/s
85%
13:00
12°
1006.4 hPa 10.6 mm
100%
8.6°
3
Windvlaag: 1.5 m/s
87%
14:00
12°
1006.5 hPa 10.4 mm
100%
8.7°
3
Windvlaag: 1.5 m/s
89%
15:00
12°
1006.5 hPa
100%
8.5°
3
Windvlaag: 1.4 m/s
90%
16:00
12°
1006.6 hPa 10.4 mm
100%
8.4°
2
Windvlaag: 1.1 m/s
85%
17:00
12°
1006.4 hPa 10.5 mm
100%
8.7°
2
Windvlaag: 1.2 m/s
89%
18:00
12°
1006.6 hPa 10.5 mm
100%
8.8°
2
Windvlaag: 1.1 m/s
96%
19:00
12°
1007.1 hPa 10.6 mm
100%
8.7°
3
Windvlaag: 1.6 m/s
97%
20:00
12°
1007.2 hPa 11.2 mm
100%
8.6°
3
Windvlaag: 1.8 m/s
97%
21:00
11°
1007.6 hPa 11.8 mm
100%
8.6°
2
Windvlaag: 1.7 m/s
98%
22:00
11°
1007.9 hPa 11.7 mm
100%
9.0°
3
Windvlaag: 2.3 m/s
94%
23:00
11°
1007.6 hPa 10.7 mm
100%
8.5°
3
Windvlaag: 2.4 m/s
85%
 06:45     17:48    Daglengte: 11:03 Zondag 25 Feb
00:00
11°
1007.5 hPa 10.7 mm
100%
8.2°
3
Windvlaag: 3.1 m/s
84%
01:00
11°
1007.3 hPa
100%
8.5°
2
Windvlaag: 3.2 m/s
91%
02:00
11°
1008.8 hPa 32.0 mm
100%
9.3°
4
Windvlaag: 6.8 m/s
40%
03:00
11°
1008.3 hPa 32.4 mm
100%
9.4°
4
Windvlaag: 6.9 m/s
75%
04:00
11°
1007.6 hPa 34.0 mm
100%
9.4°
5
Windvlaag: 7.1 m/s
90%
05:00
10°
1007.5 hPa 37.8 mm
100%
9.4°
8
Windvlaag: 10.9 m/s
100%
06:00
10°
1007.4 hPa 42.5 mm
100%
9.6°
8
Windvlaag: 9.9 m/s
100%
07:00
10°
Voelt als: 6.3°
1007.5 hPa 46.9 mm
100%
9.0°
8
Windvlaag: 10.2 m/s
100%
Temp/Neerslag /Baro Onweer/Dauwpunt
    Temp Baro Neerslag Dauwpunt Wind Bewolking  
 06:50     17:44    Daglengte: 10:54 Vandaag
10:00
Voelt als: 7.0°
1002.7 hPa   3.8°
2
17%
13:00
10°
Voelt als: 8.2°
1003.0 hPa   5.7°
3
81%
16:00
Voelt als: 7.6°
1002.9 hPa 6.6 mm 6.5°
3
81%
19:00
10°
Voelt als: 8.2°
1002.5 hPa 13.4 mm 5.5°
3
74%
22:00
Voelt als: 6.9°
1001.7 hPa 8.2 mm 6.3°
4
72%
 06:48     17:45    Daglengte: 10:57 Morgen
01:00
Voelt als: 7.4°
1001.4 hPa 4.5 mm 5.7°
2
44%
04:00
Voelt als: 6.6°
1001.0 hPa 13.9 mm 6.3°
2
42%
07:00
Voelt als: 5.9°
1002.0 hPa 4.1 mm 4.9°
3
68%
10:00
10°
Voelt als: 8.9°
1003.2 hPa 4.0 mm 5.4°
2
81%
13:00
10°
1003.3 hPa 15.2 mm 5.6°
3
81%
16:00
10°
Voelt als: 7.2°
1002.5 hPa 26.8 mm 5.4°
5
76%
19:00
10°
Voelt als: 8.1°
1001.8 hPa 35.2 mm 5.7°
4
73%
22:00
10°
1002.6 hPa 31.7 mm 8.1°
2
75%
 06:47     17:46    Daglengte: 10:59 Zaterdag 24 Feb
01:00
12°
1002.3 hPa 19.8 mm 9.0°
6
49%
04:00
10°
1003.2 hPa 53.8 mm 8.1°
4
88%
07:00
11°
1004.2 hPa 31.4 mm 8.9°
4
84%
10:00
12°
1006.0 hPa 21.1 mm 9.1°
2
91%
13:00
12°
1006.4 hPa 31.5 mm 8.6°
3
87%
16:00
12°
1006.6 hPa 20.8 mm 8.4°
2
85%
19:00
12°
1007.1 hPa 31.5 mm 8.7°
3
97%
22:00
11°
1007.9 hPa 34.7 mm 9.0°
3
94%
 06:45     17:48    Daglengte: 11:03 Zondag 25 Feb
01:00
11°
1007.3 hPa 21.4 mm 8.5°
2
91%
04:00
11°
1007.6 hPa 98.5 mm 9.4°
5
90%
07:00
10°
Voelt als: 6.3°
1007.5 hPa 127.2 mm 9.0°
8
100%
10:00
10°
Voelt als: 6.0°
1007.0 hPa   6.5°
9
0%
13:00
Voelt als: 4.8°
1006.5 hPa 0.1 mm 5.9°
8
0%
16:00
Voelt als: 3.9°
1005.7 hPa 0.3 mm 5.2°
7
1%
19:00
Voelt als: 3.6°
1006.5 hPa 0.5 mm 3.7°
5
1%
22:00
Voelt als: 4.2°
1006.9 hPa 0.1 mm 3.3°
3
1%
 06:43     17:49    Daglengte: 11:06 Maandag 26 Feb
01:00
Voelt als: 3.9°
1005.9 hPa 0.3 mm 3.4°
3
1%
04:00
Voelt als: 3.8°
1004.5 hPa 0.3 mm 3.5°
3
1%
07:00
Voelt als: 4.0°
1003.9 hPa 0.7 mm 3.5°
3
1%
10:00
Voelt als: 4.6°
1003.3 hPa 0.3 mm 4.4°
5
1%
13:00
Voelt als: 6.1°
1001.2 hPa 1.6 mm 6.0°
6
1%
16:00
Voelt als: 4.7°
999.3 hPa 7.7 mm 6.2°
5
1%
19:00
Voelt als: 1.1°
1000.1 hPa 10.0 mm 3.7°
10
1%
22:00
Voelt als: 1.4°
1001.8 hPa   2.7°
7
0%
 06:42     17:50    Daglengte: 11:08 Dinsdag 27 Feb
01:00
Voelt als: 0.6°
1003.4 hPa 0.1 mm 0.9°
7
1%
04:00
Voelt als: 0.4°
1003.9 hPa   0.2°
5
0%
07:00
Voelt als: 0.6°
1005.0 hPa   0.5°
4
1%
10:00
Voelt als: 1.7°
1006.4 hPa   0.6°
4
1%
13:00
Voelt als: 2.2°
1007.1 hPa 0.1 mm 0.5°
5
1%
16:00
Voelt als: 1.7°
1007.9 hPa   0.0°
5
1%
19:00
Voelt als: 1.7°
1009.8 hPa   -0.1°
4
1%
22:00
Voelt als: 1.4°
1011.2 hPa   0.0°
4
1%
 06:40     17:51    Daglengte: 11:11 Woensdag 28 Feb
01:00
Voelt als: 1.3°
1011.9 hPa   0.5°
3
1%
04:00
Voelt als: 1.1°
1012.4 hPa   1.0°
3
1%
07:00
Voelt als: 1.7°
1013.2 hPa 0.1 mm 1.5°
2
1%
10:00
Voelt als: 3.4°
1015.1 hPa 0.3 mm 2.5°
3
1%
13:00
Voelt als: 3.1°
1015.8 hPa 0.7 mm 2.3°
4
1%
16:00
Voelt als: 3.4°
1016.3 hPa 0.1 mm 1.2°
4
1%
19:00
Voelt als: 3.8°
1017.9 hPa 0.1 mm 0.3°
2
1%
22:00
Voelt als: 3.9°
1018.9 hPa   0.2°
2
1%
 06:39     17:53    Daglengte: 11:14 Donderdag 01 Maa
01:00
Voelt als: 4.1°
1018.8 hPa   0.3°
2
1%
04:00
Voelt als: 3.6°
1017.7 hPa   0.6°
3
1%
07:00
Voelt als: 3.2°
1017.3 hPa   0.9°
3
1%
13:00
10°
Voelt als: 7.0°
1015.6 hPa   3.9°
5
1%
19:00
10°
Voelt als: 7.2°
1013.5 hPa   6.0°
6
1%
 06:37     17:54    Daglengte: 11:17 Vrijdag 02 Maa
01:00
Voelt als: 7.8°
1011.0 hPa 0.4 mm 6.0°
3
1%
07:00
Voelt als: 7.8°
1008.7 hPa 2.0 mm 7.1°
3
1%
13:00
12°
1008.6 hPa 0.8 mm 8.7°
3
1%
19:00
11°
1009.1 hPa 0.9 mm 8.8°
0
1%
 06:35     17:55    Daglengte: 11:20 Zaterdag 03 Maa
01:00
10°
1008.9 hPa   7.9°
3
1%
07:00
10°
Voelt als: 6.9°
1008.3 hPa 0.6 mm 7.6°
6
1%
13:00
12°
1008.1 hPa 0.4 mm 7.6°
5
1%
19:00
10°
Voelt als: 7.4°
1008.0 hPa   6.8°
5
1%
 06:34     17:56    Daglengte: 11:22 Zondag 04 Maa
01:00
Voelt als: 6.4°
1008.2 hPa 0.2 mm 6.0°
4
1%
07:00
Voelt als: 7.5°
1008.1 hPa 0.6 mm 6.1°
1
0%
13:00
11°
1007.8 hPa 1.0 mm 7.8°
0
0%
19:00
10°
1007.5 hPa 1.6 mm 7.4°
0
0%
 06:32     17:57    Daglengte: 11:25 Maandag 05 Maa
01:00
Voelt als: 8.2°
1007.5 hPa 1.4 mm 6.8°
2
0%
07:00
Voelt als: 7.7°
1007.2 hPa 0.9 mm 6.1°
2
0%
13:00
11°
1007.4 hPa 0.9 mm 7.4°
1
0%
19:00
1007.3 hPa 2.5 mm 7.2°
1
0%
 06:30     17:59    Daglengte: 11:29 Dinsdag 06 Maa
01:00
Voelt als: 8.2°
1007.9 hPa 1.9 mm 6.5°
1
0%
07:00
1007.5 hPa 1.5 mm 6.7°
1
0%
13:00
12°
1006.9 hPa 1.2 mm 8.7°
1
0%
19:00
11°
1006.8 hPa 0.9 mm 8.7°
1
0%
 06:29     18:00    Daglengte: 11:31 Woensdag 07 Maa
01:00
10°
1007.6 hPa 0.7 mm 8.2°
2
0%
07:00
10°
Voelt als: 9.4°
1008.1 hPa 0.7 mm 7.3°
1
0%
13:00
13°
1008.9 hPa 1.0 mm 8.5°
1
0%
19:00
10°
1009.8 hPa 1.0 mm 8.4°
0
0%
 06:27     18:01    Daglengte: 11:34 Donderdag 08 Maa
01:00
10°
Voelt als: 9.5°
1011.1 hPa 0.3 mm 7.5°
1
0%
07:00
10°
Voelt als: 9.6°
1011.2 hPa 0.3 mm 7.1°
1
0%
13:00
14°
1010.8 hPa 0.4 mm 9.1°
0
0%
19:00
12°
1010.5 hPa 0.8 mm 9.4°
1
0%
 06:25     18:02    Daglengte: 11:37 Vrijdag 09 Maa
01:00
11°
1010.6 hPa 0.6 mm 8.6°
1
0%
07:00
11°
1009.8 hPa 0.6 mm 8.3°
1
0%
  CAPE Lifted Index Hail Supercell Tornado SRH 3km CL BTM PRES CL TOP PRES Swiss DWD icon SMHI TS
 06:50     17:44    Daglengte: 10:54 Vandaag
08:00 0 J/kg 4.4 K 0 % 0 % 0 % 0 m²/s² 0 0 8.12
09:00 0 J/kg 4.2 K 0 % 0 % 0 % 0 m²/s² 0 0 6.42
10:00 0 J/kg 3.8 K 0 % 0 % 0 % 0 m²/s² 0 0 5.15
11:00 3 J/kg 3.5 K 0 % 0 % 0 % 0 m²/s² 0 0 4.7
12:00 6 J/kg 3.9 K 0 % 0 % 0 % 0 m²/s² 0 0 4.5
13:00 40 J/kg 3.7 K 0 % 0 % 0 % 0 m²/s² 0 0 4.06
14:00 49 J/kg 3.0 K 0 % 0 % 0 % 0 m²/s² 0 0 3.36
15:00 48 J/kg 1.7 K 0 % 0 % 0 % 0 m²/s² 0 0 1.97
16:00 35 J/kg 1.5 K 0 % 0 % 0 % 0 m²/s² 0 0 1.83
17:00 28 J/kg 1.7 K 0 % 0 % 0 % 0 m²/s² 0 0 2.27
18:00 14 J/kg 1.3 K 0 % 0 % 0 % 0 m²/s² 0 0 2.17
19:00 3 J/kg 1.4 K 0 % 0 % 0 % 0 m²/s² 0 0 2.15
20:00 1 J/kg 2.0 K 0 % 0 % 0 % 0 m²/s² 0 0 2.33
21:00 0 J/kg 2.6 K 0 % 0 % 0 % 0 m²/s² 0 0 2.87
22:00 1 J/kg 2.0 K 0 % 0 % 0 % 0 m²/s² 0 0 2.45
23:00 0 J/kg 2.4 K 0 % 0 % 0 % 0 m²/s² 0 0 3.09
 06:48     17:45    Daglengte: 10:57 Morgen
00:00 0 J/kg 2.4 K 0 % 0 % 0 % 0 m²/s² 0 0 3.45
01:00 0 J/kg 2.5 K 0 % 0 % 0 % 0 m²/s² 0 0 3.97
02:00 0 J/kg 2.7 K 0 % 0 % 0 % 0 m²/s² 0 0 3.45
03:00 0 J/kg 3.5 K 0 % 0 % 0 % 0 m²/s² 0 0 4.82
04:00 0 J/kg 3.5 K 0 % 0 % 0 % 0 m²/s² 0 0 4.85
05:00 0 J/kg 3.7 K 0 % 0 % 0 % 0 m²/s² 0 0 5.65
06:00 0 J/kg 4.1 K 0 % 0 % 0 % 0 m²/s² 0 0 5.87
07:00 0 J/kg 3.6 K 0 % 0 % 0 % 0 m²/s² 0 0 5.28
08:00 0 J/kg 3.8 K 0 % 0 % 0 % 0 m²/s² 0 0 4.67
09:00 0 J/kg 4.4 K 0 % 0 % 0 % 0 m²/s² 0 0 4.76
10:00 0 J/kg 4.4 K 0 % 0 % 0 % 0 m²/s² 0 0 4.67
11:00 0 J/kg 4.2 K 0 % 0 % 0 % 0 m²/s² 0 0 4.53
12:00 0 J/kg 3.4 K 0 % 0 % 0 % 0 m²/s² 0 0 3.73
13:00 3 J/kg 2.1 K 0 % 0 % 0 % 0 m²/s² 0 0 2.34
14:00 14 J/kg 2.9 K 0 % 0 % 0 % 0 m²/s² 0 0 3.05
15:00 10 J/kg 1.6 K 0 % 0 % 0 % 0 m²/s² 0 0 1.93
16:00 4 J/kg 1.1 K 0 % 0 % 0 % 0 m²/s² 0 0 1.52
17:00 1 J/kg 0.8 K 0 % 0 % 0 % 0 m²/s² 0 0 1.79
18:00 0 J/kg 0.4 K 0 % 0 % 0 % 0 m²/s² 0 0 1.39
19:00 0 J/kg 0.6 K 0 % 0 % 0 % 0 m²/s² 0 0 2.22
20:00 0 J/kg 0.5 K 0 % 0 % 0 % 0 m²/s² 0 0 1.07
21:00 5 J/kg 0.2 K 0 % 0 % 0 % 0 m²/s² 0 0 0.53
22:00 88 J/kg -0.3 K 0 % 0 % 0 % 0 m²/s² 0 0 -0.06
23:00 104 J/kg -0.1 K 0 % 0 % 0 % 0 m²/s² 0 0 0.14
 06:47     17:46    Daglengte: 10:59 Zaterdag 24 Feb
00:00 84 J/kg -0.3 K 0 % 0 % 0 % 0 m²/s² 0 0 0.42
01:00 127 J/kg -0.5 K 0 % 0 % 0 % 0 m²/s² 0 0 -0.02
02:00 87 J/kg -0.7 K 0 % 0 % 0 % 0 m²/s² 0 0 0.14
03:00 55 J/kg 0.1 K 0 % 0 % 0 % 0 m²/s² 0 0 0.64
04:00 0 J/kg 0.2 K 0 % 0 % 0 % 0 m²/s² 0 0 0.77
05:00 15 J/kg 0.5 K 0 % 0 % 0 % 0 m²/s² 0 0 1.13
06:00 47 J/kg 0.1 K 0 % 0 % 0 % 0 m²/s² 0 0 1.21
07:00 59 J/kg 0.2 K 0 % 0 % 0 % 0 m²/s² 0 0 1.85
08:00 174 J/kg -0.2 K 0 % 0 % 0 % 0 m²/s² 0 0 1.75
09:00 307 J/kg -0.8 K 0 % 0 % 0 % 0 m²/s² 0 0 1.48
10:00 295 J/kg -0.5 K 0 % 0 % 0 % 0 m²/s² 0 0 1.57
11:00 284 J/kg -0.4 K 0 % 0 % 0 % 0 m²/s² 0 0 1.49
12:00 208 J/kg 0.1 K 0 % 0 % 0 % 0 m²/s² 0 0 1.57
13:00 238 J/kg -0.1 K 0 % 0 % 0 % 0 m²/s² 0 0 1.22
14:00 251 J/kg -0.2 K 0 % 0 % 0 % 0 m²/s² 0 0 0.82
15:00 232 J/kg -0.1 K 0 % 0 % 0 % 0 m²/s² 0 0 0.68
16:00 192 J/kg 0.1 K 0 % 0 % 0 % 0 m²/s² 0 0 0.76
17:00 178 J/kg 0.3 K 0 % 0 % 0 % 0 m²/s² 0 0 1.08
18:00 160 J/kg 0.3 K 0 % 0 % 0 % 0 m²/s² 0 0 1.23
19:00 150 J/kg 0.4 K 0 % 0 % 0 % 0 m²/s² 0 0 1.36
20:00 149 J/kg 0.5 K 0 % 0 % 0 % 0 m²/s² 0 0 1.43
21:00 140 J/kg 0.6 K 0 % 0 % 0 % 0 m²/s² 0 0 1.56
22:00 156 J/kg 0.3 K 0 % 0 % 0 % 0 m²/s² 0 0 1.32
23:00 135 J/kg 0.3 K 0 % 0 % 0 % 0 m²/s² 0 0 1.23
 06:45     17:48    Daglengte: 11:03 Zondag 25 Feb
00:00 92 J/kg 0.6 K 0 % 0 % 0 % 0 m²/s² 0 0 1.53
01:00 90 J/kg 0.7 K 0 % 0 % 0 % 0 m²/s² 0 0 1.48
02:00 108 J/kg 0.5 K 0 % 0 % 0 % 0 m²/s² 0 0 1.34
03:00 121 J/kg 0.3 K 0 % 0 % 0 % 0 m²/s² 0 0 0.96
04:00 57 J/kg 0.4 K 0 % 0 % 0 % 0 m²/s² 0 0 0.79
05:00 48 J/kg 0.7 K 0 % 0 % 0 % 0 m²/s² 0 0 0.94
06:00 74 J/kg 0.6 K 0 % 0 % 0 % 0 m²/s² 0 0 0.87
07:00 25 J/kg 0.9 K 0 % 0 % 0 % 0 m²/s² 0 0 1.17
Temp Baro Wind Neerslag
  EWN Forecast EWN WRFDA DWD ICON FMI HIRLAM MET Norway GFS
 06:50     17:44    Daglengte: 10:54 Vandaag
10:00 8.1° 1002.7 hPa 2.0 m/s 0.0 mm 9.8° 1000.3 hPa 3.1 m/s 0.2 mm 8.0° 1002.6 hPa 2.1 m/s 0.0 mm 8.8° 1003.4 hPa 1.4 m/s
13:00 9.8° 1003.0 hPa 3.1 m/s 0.0 mm 11.0° 1000.6 hPa 3.2 m/s 0.2 mm 9.9° 1002.9 hPa 4.3 m/s 0.0 mm 10.1° 1003.4 hPa 3.4 m/s
16:00 9.4° 1002.9 hPa 3.2 m/s 6.6 mm 9.3° 1000.3 hPa 2.2 m/s 17.0 mm 10.5° 1002.8 hPa 3.6 m/s 0.0 mm 10.4° 1003.0 hPa 3.8 m/s
19:00 9.7° 1002.5 hPa 2.9 m/s 13.4 mm 9.5° 999.3 hPa 2.1 m/s 32.7 mm 11.8° 1002.3 hPa 5.0 m/s 0.0 mm 10.2° 1002.4 hPa 4.2 m/s
22:00 9.1° 1001.7 hPa 4.1 m/s 8.2 mm 9.3° 999.7 hPa 4.1 m/s 34.0 mm 11.1° 1001.1 hPa 1.8 m/s 0.0 mm 10.1° 1002.3 hPa 3.3 m/s
 06:48     17:45    Daglengte: 10:57 Morgen
01:00 8.7° 1001.4 hPa 2.3 m/s 4.5 mm 8.6° 999.2 hPa 3.0 m/s 35.1 mm 10.5° 1000.9 hPa 2.0 m/s 0.0 mm 9.0° 1001.8 hPa 2.1 m/s
04:00 8.1° 1001.0 hPa 2.4 m/s 13.9 mm 8.3° 999.3 hPa 1.6 m/s 35.2 mm 8.5° 1000.7 hPa 2.5 m/s 0.0 mm 9.1° 1001.2 hPa 2.5 m/s
07:00 7.6° 1002.0 hPa 2.5 m/s 4.1 mm 7.6° 1000.8 hPa 1.9 m/s 35.2 mm 8.0° 1001.9 hPa 2.5 m/s 0.0 mm 9.2° 1001.7 hPa 1.5 m/s
10:00 9.8° 1003.2 hPa 2.1 m/s 4.0 mm 10.9° 1002.6 hPa 1.6 m/s 35.3 mm 10.3° 1003.2 hPa 2.0 m/s 0.0 mm 10.3° 1002.7 hPa 1.4 m/s
13:00 10.3° 1003.3 hPa 3.0 m/s 15.2 mm 10.2° 1002.0 hPa 2.9 m/s 40.4 mm 11.9° 1003.6 hPa 1.8 m/s 0.0 mm 9.6° 1002.7 hPa 1.6 m/s
16:00 9.7° 1002.5 hPa 5.2 m/s 26.8 mm 9.4° 1001.1 hPa 4.8 m/s 68.2 mm 11.5° 1002.8 hPa 5.2 m/s 0.0 mm 9.3° 1001.7 hPa 2.8 m/s
19:00 9.9° 1001.8 hPa 3.6 m/s 35.2 mm 9.7° 1000.7 hPa 2.2 m/s 84.6 mm 10.4° 1001.8 hPa 5.5 m/s 0.0 mm 11.1° 1001.6 hPa 3.7 m/s
22:00 10.4° 1002.6 hPa 2.3 m/s 31.7 mm 10.9° 1002.6 hPa 2.1 m/s 86.8 mm 10.8° 1002.0 hPa 1.6 m/s 0.0 mm 12.8° 1002.0 hPa 8.4 m/s
 06:47     17:46    Daglengte: 10:59 Zaterdag 24 Feb
01:00 11.9° 1002.3 hPa 6.2 m/s 19.8 mm 12.1° 1002.4 hPa 6.2 m/s 87.5 mm 13.7° 1001.0 hPa 9.8 m/s 0.0 mm 12.9° 1002.0 hPa 7.3 m/s
04:00 10.0° 1003.2 hPa 4.3 m/s 53.8 mm 10.2° 1002.9 hPa 1.7 m/s 88.6 mm 12.7° 1002.4 hPa 5.6 m/s
07:00 11.0° 1004.2 hPa 3.9 m/s 31.4 mm 11.8° 1004.6 hPa 2.5 m/s 89.2 mm 12.8° 1003.8 hPa 6.4 m/s
10:00 11.9° 1006.0 hPa 1.9 m/s 21.1 mm 13.5° 1006.6 hPa 7.5 m/s 90.2 mm 13.1° 1005.8 hPa 6.6 m/s
13:00 12.3° 1006.4 hPa 3.1 m/s 31.5 mm 14.5° 1007.1 hPa 8.5 m/s 92.2 mm 14.1° 1006.5 hPa 6.7 m/s
16:00 12.5° 1006.6 hPa 2.4 m/s 20.8 mm 14.1° 1007.2 hPa 7.4 m/s 92.8 mm 14.0° 1006.5 hPa 6.9 m/s
19:00 11.8° 1007.1 hPa 3.1 m/s 31.5 mm 13.0° 1008.1 hPa 4.7 m/s 92.9 mm 12.9° 1007.3 hPa 3.7 m/s
22:00 11.1° 1007.9 hPa 2.5 m/s 34.7 mm 12.1° 1009.3 hPa 3.9 m/s 93.7 mm 11.8° 1008.1 hPa 2.6 m/s
 06:45     17:48    Daglengte: 11:03 Zondag 25 Feb
01:00 11.0° 1007.3 hPa 2.5 m/s 21.4 mm 11.6° 1009.1 hPa 4.3 m/s 95.2 mm 10.7° 1007.8 hPa 2.1 m/s
04:00 10.7° 1007.6 hPa 5.3 m/s 98.5 mm 10.7° 1007.6 hPa 5.3 m/s 98.5 mm 9.8° 1006.6 hPa 3.7 m/s
07:00 9.8° 1007.5 hPa 8.5 m/s 127.2 mm 9.8° 1007.5 hPa 8.5 m/s 127.2 mm 8.9° 1006.7 hPa 5.9 m/s
10:00 9.6° 1007.0 hPa 8.6 m/s 0.0 mm 9.6° 1007.0 hPa 8.6 m/s 0.0 mm
13:00 8.6° 1006.5 hPa 8.3 m/s 0.1 mm 8.6° 1006.5 hPa 8.3 m/s 0.1 mm
16:00 7.5° 1005.7 hPa 6.6 m/s 0.3 mm 7.5° 1005.7 hPa 6.6 m/s 0.3 mm
19:00 6.7° 1006.5 hPa 4.7 m/s 0.5 mm 6.7° 1006.5 hPa 4.7 m/s 0.5 mm
22:00 6.5° 1006.9 hPa 3.1 m/s 0.1 mm 6.5° 1006.9 hPa 3.1 m/s 0.1 mm
 06:43     17:49    Daglengte: 11:06 Maandag 26 Feb
01:00 6.2° 1005.9 hPa 3.1 m/s 0.3 mm 6.2° 1005.9 hPa 3.1 m/s 0.3 mm
04:00 6.2° 1004.5 hPa 3.3 m/s 0.3 mm 6.2° 1004.5 hPa 3.3 m/s 0.3 mm
07:00 6.3° 1003.9 hPa 3.1 m/s 0.7 mm 6.3° 1003.9 hPa 3.1 m/s 0.7 mm
10:00 7.5° 1003.3 hPa 4.6 m/s 0.3 mm 7.5° 1003.3 hPa 4.6 m/s 0.3 mm
13:00 9.0° 1001.2 hPa 5.8 m/s 1.6 mm 9.0° 1001.2 hPa 5.8 m/s 1.6 mm
16:00 7.7° 999.3 hPa 5.2 m/s 7.7 mm 7.7° 999.3 hPa 5.2 m/s 7.7 mm
19:00 6.2° 1000.1 hPa 10.2 m/s 10.0 mm 6.2° 1000.1 hPa 10.2 m/s 10.0 mm
22:00 5.7° 1001.8 hPa 7.2 m/s 0.0 mm 5.7° 1001.8 hPa 7.2 m/s 0.0 mm
 06:42     17:50    Daglengte: 11:08 Dinsdag 27 Feb
01:00 5.1° 1003.4 hPa 7.1 m/s 0.1 mm 5.1° 1003.4 hPa 7.1 m/s 0.1 mm
04:00 4.4° 1003.9 hPa 5.3 m/s 0.0 mm 4.4° 1003.9 hPa 5.3 m/s 0.0 mm
07:00 4.1° 1005.0 hPa 4.3 m/s 0.0 mm 4.1° 1005.0 hPa 4.3 m/s 0.0 mm
10:00 5.0° 1006.4 hPa 4.3 m/s 0.0 mm 5.0° 1006.4 hPa 4.3 m/s 0.1 mm
13:00 5.7° 1007.1 hPa 4.9 m/s 0.1 mm 5.7° 1007.1 hPa 4.9 m/s 0.1 mm
16:00 5.4° 1007.9 hPa 5.3 m/s 0.0 mm 5.4° 1007.9 hPa 5.3 m/s 0.0 mm
19:00 4.9° 1009.8 hPa 4.0 m/s 0.0 mm 4.9° 1009.8 hPa 4.0 m/s 0.0 mm
22:00 4.4° 1011.2 hPa 3.5 m/s 0.0 mm 4.4° 1011.2 hPa 3.5 m/s 0.0 mm
 06:40     17:51    Daglengte: 11:11 Woensdag 28 Feb
01:00 4.1° 1011.9 hPa 3.2 m/s 0.0 mm 4.1° 1011.9 hPa 3.2 m/s 0.0 mm
04:00 3.9° 1012.4 hPa 3.3 m/s 0.0 mm 3.9° 1012.4 hPa 3.3 m/s 0.0 mm
07:00 4.0° 1013.2 hPa 2.5 m/s 0.1 mm 4.0° 1013.2 hPa 2.5 m/s 0.1 mm
10:00 5.5° 1015.1 hPa 2.6 m/s 0.3 mm 5.5° 1015.1 hPa 2.6 m/s 0.3 mm
13:00 6.1° 1015.8 hPa 4.1 m/s 0.7 mm 6.1° 1015.8 hPa 4.1 m/s 0.7 mm
16:00 6.1° 1016.3 hPa 3.7 m/s 0.1 mm 6.1° 1016.3 hPa 3.7 m/s 0.1 mm
19:00 5.7° 1017.9 hPa 2.4 m/s 0.1 mm 5.7° 1017.9 hPa 2.4 m/s 0.1 mm
22:00 5.8° 1018.9 hPa 2.4 m/s 0.0 mm 5.8° 1018.9 hPa 2.4 m/s 0.0 mm
 06:39     17:53    Daglengte: 11:14 Donderdag 01 Maa
01:00 5.9° 1018.8 hPa 2.4 m/s 0.0 mm 5.9° 1018.8 hPa 2.4 m/s 0.0 mm
04:00 5.6° 1017.7 hPa 2.5 m/s 0.0 mm 5.6° 1017.7 hPa 2.5 m/s 0.0 mm
07:00 5.7° 1017.3 hPa 3.1 m/s 0.0 mm 5.7° 1017.3 hPa 3.1 m/s 0.0 mm
13:00 9.5° 1015.6 hPa 4.8 m/s 0.0 mm 9.5° 1015.6 hPa 4.8 m/s 0.0 mm
19:00 9.8° 1013.5 hPa 5.5 m/s 0.0 mm 9.8° 1013.5 hPa 5.5 m/s 0.1 mm
 06:37     17:54    Daglengte: 11:17 Vrijdag 02 Maa
01:00 9.4° 1011.0 hPa 3.0 m/s 0.2 mm 9.4° 1011.0 hPa 3.0 m/s 0.2 mm
07:00 9.2° 1008.7 hPa 2.5 m/s 1.5 mm 9.2° 1008.7 hPa 2.5 m/s 1.5 mm
13:00 12.4° 1008.6 hPa 2.9 m/s 0.6 mm 12.4° 1008.6 hPa 2.9 m/s 0.6 mm
19:00 11.2° 1009.1 hPa 0.3 m/s 0.5 mm 11.2° 1009.1 hPa 0.3 m/s 0.5 mm
 06:35     17:55    Daglengte: 11:20 Zaterdag 03 Maa
01:00 10.4° 1008.9 hPa 2.6 m/s 0.0 mm 10.4° 1008.9 hPa 2.6 m/s 0.0 mm
07:00 9.6° 1008.3 hPa 5.5 m/s 0.5 mm 9.6° 1008.3 hPa 5.5 m/s 0.5 mm
13:00 11.6° 1008.1 hPa 5.3 m/s 0.2 mm 11.6° 1008.1 hPa 5.3 m/s 0.2 mm
19:00 9.7° 1008.0 hPa 4.5 m/s 0.0 mm 9.7° 1008.0 hPa 4.5 m/s 0.1 mm
 06:34     17:56    Daglengte: 11:22 Zondag 04 Maa
01:00 8.8° 1008.2 hPa 4.1 m/s 0.1 mm 8.8° 1008.2 hPa 4.1 m/s 0.2 mm
07:00 8.1° 1008.1 hPa 1.5 m/s 0.6 mm
13:00 11.4° 1007.8 hPa 0.4 m/s 1.0 mm
19:00 9.7° 1007.5 hPa 0.3 m/s 1.6 mm
 06:32     17:57    Daglengte: 11:25 Maandag 05 Maa
01:00 8.8° 1007.5 hPa 1.6 m/s 1.4 mm
07:00 8.3° 1007.2 hPa 1.5 m/s 0.9 mm
13:00 11.0° 1007.4 hPa 0.8 m/s 0.9 mm
19:00 9.3° 1007.3 hPa 0.7 m/s 2.5 mm
 06:30     17:59    Daglengte: 11:29 Dinsdag 06 Maa
01:00 8.7° 1007.9 hPa 1.5 m/s 1.9 mm
07:00 8.9° 1007.5 hPa 0.9 m/s 1.5 mm
13:00 12.2° 1006.9 hPa 1.0 m/s 1.2 mm
19:00 10.8° 1006.8 hPa 1.1 m/s 0.9 mm
 06:29     18:00    Daglengte: 11:31 Woensdag 07 Maa
01:00 10.1° 1007.6 hPa 1.8 m/s 0.7 mm
07:00 9.6° 1008.1 hPa 1.2 m/s 0.7 mm
13:00 12.6° 1008.9 hPa 1.0 m/s 1.0 mm
19:00 10.5° 1009.8 hPa 0.3 m/s 1.0 mm
 06:27     18:01    Daglengte: 11:34 Donderdag 08 Maa
01:00 9.7° 1011.1 hPa 1.3 m/s 0.3 mm
07:00 9.7° 1011.2 hPa 1.2 m/s 0.3 mm
13:00 13.8° 1010.8 hPa 0.2 m/s 0.4 mm
19:00 11.5° 1010.5 hPa 0.6 m/s 0.8 mm
 06:25     18:02    Daglengte: 11:37 Vrijdag 09 Maa
01:00 10.7° 1010.6 hPa 1.4 m/s 0.6 mm
07:00 10.7° 1009.8 hPa 1.1 m/s 0.6 mm
FMI Hirlam - 7.5 km EWN WRFDA - 12 km DWD ICON - 7 km GFS - 25 km Basiskaart






























































Updatetijd (Europe/Amsterdam) Resolutie Lengte Stap
FMI Hirlam 06:00, 12:00, 18:00, 00:00 7.5 km 49h 1h
EWN WRFDA 02:15, 08:15, 14:15, 20:15 12 km 73h 1h
DWD ICON 05:45, 11:45, 17:45, 23:45 7 km 75h 1h
GFS 02:15, 08:15, 14:15, 20:15 25 km 237h 3h
30+ mm
25-30 mm
20-25 mm
15-20 mm
10-15 mm
6-10 mm
4-6 mm
2-4 mm
1-2 mm
0.5-1 mm
0.2-0.5 mm
0.1-0.2 mm
30+ mm
25-30 mm
20-25 mm
15-20 mm
10-15 mm
6-10 mm
4-6 mm
2-4 mm
1-2 mm
0.5-1 mm
0.2-0.5 mm
0.1-0.2 mm
Sneeuwval
Natte sneeuw
Hagel
Vorst
30+ mm
25-30 mm
20-25 mm
15-20 mm
10-15 mm
6-10 mm
4-6 mm
2-4 mm
1-2 mm
0.5-1 mm
0.2-0.5 mm
0.1-0.2 mm
Sneeuwval
Natte sneeuw
Hagel
Vorst
Onweer
50 mm
40 mm
30 mm
26 mm
22 mm
18 mm
14 mm
10 mm
9 mm
8 mm
7 mm
6 mm
5 mm
4.5 mm
4 mm
3.5 mm
3 mm
2.5 mm
2 mm
1.5 mm
1 mm
0.8 mm
0.6 mm
0.4 mm
0.2 mm
0.05 mm
35°
30°
25°
20°
15°
10°
-5°
-10°
-15°
-20°
-25°
-30°
-35°
33> m/s
29 m/s
25 m/s
21 m/s
17 m/s
14 m/s
11 m/s
8 m/s
5 m/s
3 m/s
0 m/s
2600 J/kg
2400 J/kg
2200 J/kg
2000 J/kg
1800 J/kg
1600 J/kg
1400 J/kg
1200 J/kg
1000 J/kg
800 J/kg
600 J/kg
400 J/kg
200 J/kg
70 dBZ
65 dBZ
60 dBZ
55 dBZ
50 dBZ
45 dBZ
40 dBZ
35 dBZ
30 dBZ
25 dBZ
20 dBZ
15 dBZ
10 dBZ
5 dBZ
-1 K
-2 K
-3 K
-4 K
-5 K
-6 K
-7 K
-8 K
-9 K
950 m²/s²
900 m²/s²
850 m²/s²
800 m²/s²
750 m²/s²
700 m²/s²
650 m²/s²
600 m²/s²
550 m²/s²
500 m²/s²
450 m²/s²
400 m²/s²
350 m²/s²
300 m²/s²
250 m²/s²
200 m²/s²
150 m²/s²
100 m²/s²
46 m/s
44 m/s
42 m/s
40 m/s
38 m/s
36 m/s
34 m/s
32 m/s
30 m/s
28 m/s
26 m/s
24 m/s
22 m/s
20 m/s
16 m/s
12 m/s
8 m/s
4 m/s
30 m/s
28 m/s
26 m/s
24 m/s
22 m/s
20 m/s
18 m/s
16 m/s
14 m/s
12 m/s
10 m/s
8 m/s
6 m/s
4 m/s
2 m/s
3.0
2.8
2.6
2.4
2.2
2.0
1.8
1.6
1.4
1.2
1.0
0.8
0.6
0.4
0.2
15
14
13
12
11
10
9
8
7
6
5
4
3
2
1
90%
80%
70%
60%
50%
40%
30%
20%
10%
42
40
38
36
34
32
30
28
26
24
22
20
18
16
14
12
90+ cm
80-90 cm
70-80 cm
60-70 cm
50-60 cm
40-50 cm
30-40 cm
20-30 cm
10-20 cm
1-10 cm
Sneeuwval
Natte sneeuw
Regen
>120 mm
115 mm
110 mm
105 mm
100 mm
95 mm
90 mm
85 mm
80 mm
75 mm
70 mm
65 mm
60 mm
55 mm
50 mm
45 mm
45 mm
40 mm
35 mm
30 mm
25 mm
20 mm
15 mm
10 mm
5 mm
0.1 mm
960 hPa
880 hPa
800 hPa
720 hPa
640 hPa
560 hPa